Lid_Strength_Index
3 3 3 3 3 4 4 3 3 3 3 3 3 3 3 3 3 3 3 3 3 2 3 3 3 4 7 12 12 8 3 5 7 6 5 7 10 11 12 11 7 9 8 7 6 6 6
3 3 3 4 4 4 4 4 4 3 3 3 3 3 3 3 3 3 3 3 2 3 3 3 3 3 9 14 8 7 7 6 8 10 9 6 9 10 11 11 9 11 9 7 7 7 7
3 3 3 3 4 4 4 4 4 4 4 4 4 4 3 3 3 3 3 3 2 2 2 2 3 4 8 11 6 6 7 8 8 8 10 9 5 8 11 13 11 11 13 12 11 10 10
3 3 3 4 4 4 4 4 4 4 4 4 3 3 3 3 3 3 3 2 2 2 1 2 2 6 10 5 5 6 6 7 7 7 8 9 8 10 11 12 12 12 13 14 10 11 10
3 3 4 4 4 4 4 4 4 4 4 4 3 3 3 3 3 3 2 2 2 1 2 2 6 9 11 5 6 5 5 7 7 7 9 6 9 11 10 13 15 14 15 15 13 9 9
3 3 4 4 4 4 4 4 4 4 4 4 4 3 3 3 3 3 3 2 2 3 3 4 5 10 10 10 7 6 6 7 8 8 10 11 12 13 14 14 17 16 15 14 14 11 10
4 4 4 4 4 4 4 3 3 3 4 4 4 4 4 4 3 3 5 8 9 10 10 12 11 10 9 6 4 5 6 8 9 10 14 12 16 16 14 12 12 12 12 13 11 11 11
4 4 4 4 4 4 4 3 3 4 4 4 4 4 4 3 4 4 8 10 9 9 12 8 8 7 5 4 6 5 3 8 10 14 12 14 16 14 12 11 12 13 14 15 12 10 13
5 4 4 4 4 4 4 4 3 3 4 4 4 4 4 4 4 7 9 7 7 8 13 10 7 6 5 4 6 6 5 7 9 11 12 15 13 11 13 13 13 14 15 14 14 11 11
5 5 5 5 5 5 4 4 4 3 3 4 4 4 4 4 7 8 8 6 6 7 16 12 8 5 4 5 7 3 3 7 9 11 11 13 12 13 15 14 13 16 12 12 13 14 17
5 5 4 4 4 4 4 4 4 3 3 3 4 4 4 4 8 8 7 5 7 9 20 9 7 3 4 7 6 6 3 6 10 11 11 13 13 13 14 14 12 15 12 13 13 15 16
5 4 5 4 4 4 4 4 4 3 3 3 3 4 4 7 6 6 5 6 8 15 20 10 7 8 8 7 6 6 6 5 6 9 10 12 9 11 12 11 11 11 13 14 14 15 20
5 5 5 4 4 4 4 4 4 3 3 3 4 4 5 6 9 6 6 9 16 19 10 12 10 8 9 9 8 8 9 10 12 14 15 11 11 10 9 13 12 14 17 20 20 20 20
5 5 5 4 4 4 4 4 4 4 3 3 3 5 5 6 6 6 9 13 19 13 12 8 9 9 11 9 9 9 10 12 10 11 14 15 16 12 10 12 14 16 17 19 21 21 20
4 5 4 4 4 4 4 4 4 4 4 4 5 8 8 6 5 7 11 18 16 12 9 10 10 12 12 10 10 10 11 11 11 10 15 16 15 9 8 10 10 14 18 15 18 18 21
4 4 4 5 5 4 4 4 4 4 5 4 9 9 8 6 6 8 13 14 13 9 8 9 13 11 14 12 12 12 12 10 10 8 8 11 14 10 9 9 10 12 12 17 19 21 22
5 4 5 5 5 5 5 4 4 4 5 5 10 10 7 7 7 10 16 14 11 8 7 10 11 12 12 12 12 13 12 10 9 9 8 10 12 12 10 12 13 13 15 14 17 18 21
5 4 4 5 5 5 5 5 5 4 5 7 12 12 7 7 13 16 16 11 8 9 7 8 9 10 11 11 12 12 12 10 8 8 12 10 13 16 14 10 9 12 13 13 17 19 18
5 5 4 5 5 4 5 5 5 4 5 7 11 10 6 9 18 17 12 11 9 9 9 9 10 9 9 11 13 11 11 7 7 9 11 11 14 17 15 13 11 13 12 12 13 15 18
4 4 4 4 4 4 5 5 4 5 5 8 11 14 12 11 13 15 11 12 11 8 9 8 9 8 10 11 10 12 11 8 7 8 6 8 13 15 18 15 13 14 12 11 13 17 17
4 4 4 4 4 4 4 5 4 5 6 10 13 15 10 16 15 15 11 11 11 11 8 8 10 9 11 13 12 12 10 10 8 7 9 10 14 13 13 12 12 13 13 12 14 14 16
4 4 4 4 4 4 4 4 4 5 6 12 15 14 12 13 12 12 11 11 11 10 10 10 11 10 10 12 11 13 11 11 12 9 10 10 14 14 14 12 12 14 12 12 12 13 14
5 4 4 4 4 4 5 4 4 4 7 11 9 9 10 12 14 16 14 11 11 10 9 8 8 10 10 9 8 8 8 8 9 10 11 12 13 14 17 12 13 16 13 12 12 11 13
4 4 4 4 4 4 5 4 4 4 6 8 9 9 11 14 13 14 12 11 11 10 10 8 8 9 8 6 8 8 9 9 9 10 8 12 13 13 16 16 20 13 10 10 12 11 11
4 4 4 4 4 4 5 5 5 5 4 7 8 9 11 13 11 12 12 11 11 9 9 8 8 6 7 10 12 13 13 12 11 9 10 9 11 15 17 18 14 12 12 12 13 13 9
4 4 4 4 5 5 6 6 5 5 5 6 7 7 9 12 13 10 12 12 12 11 9 8 7 7 10 13 14 16 17 15 15 13 9 10 10 13 15 19 20 14 10 9 9 16 9
4 4 4 5 5 6 6 6 5 5 5 6 7 6 8 10 9 9 12 12 10 10 11 9 8 10 10 14 15 15 15 12 16 16 15 14 14 16 16 17 15 11 10 9 17 15 9
5 5 5 6 5 6 6 6 5 5 5 6 7 6 8 9 9 7 8 11 10 10 11 8 10 11 12 15 13 14 15 13 14 13 14 15 16 16 15 17 19 8 11 13 11 9 8
6 6 6 6 6 6 6 6 6 6 5 5 8 6 5 8 8 6 6 6 7 7 8 8 8 9 8 14 14 13 15 12 13 16 10 15 13 14 14 14 9 8 10 10 8 8 7